Joliet, IL

2:25 AM CST on November 24, 2017 (GMT -0600)
Joliet Regional

Weather History for KJOT - April, 2013

Change the Weather History Date:

Saturday, April 13, 2013

  Actual Average (KARR) Record (KARR)
Temperature  
Mean Temperature 40 °F -  
Max Temperature 46 °F 57 °F 83 °F (2006)
Min Temperature 35 °F 36 °F 24 °F (2003)
Degree Days  
Heating Degree Days 24    
Moisture  
Dew Point 30 °F    
Average Humidity 71    
Maximum Humidity 89    
Minimum Humidity 51    
Precipitation  
Precipitation 0.00 in - - ()
Sea Level Pressure  
Sea Level Pressure 29.93 in    
Wind  
Wind Speed 9 mph (West)    
Max Wind Speed 16 mph    
Max Gust Speed 25 mph    
Visibility 10 miles    
Events      
Averages and records for this station are not official NWS values.
T = Trace of Precipitation, MM = Missing Value Source: NWS Daily Summary

Daily Weather History Graph

Daily Weather History Graph

Search for Another Location

Airport or City:

Trip Planner

Search our weather history database for the weather conditions in past years. The results will help you decide how hot, cold, wet, or windy it might be!

Date:

Astronomy

Apr. 13, 2013 Rise Set
Actual Time 6:15 AM CDT 7:31 PM CDT
Civil Twilight 5:47 AM CDT 8:00 PM CDT
Nautical Twilight 5:12 AM CDT 8:34 PM CDT
Astronomical Twilight 4:36 AM CDT 9:10 PM CDT
Moon 8:05 AM CDT (4/13) 10:57 PM CDT (4/13)
Length of Visible Light 14h 12m
Length of Day
13h 15m
Waxing Crescent, 10% of the Moon is Illuminated
Apr 13
Waxing Crescent
Apr 18
First Quarter
Apr 25
Full
May 2
Last Quarter
May 9
New

Hourly Weather History & Observations

Time (CDT) Temp. Windchill Dew Point Humidity Pressure Visibility Wind Dir Wind Speed Gust Speed Precip Events Conditions
12:15 AM 38.3 °F 31.9 °F 31.6 °F 77% 29.87 in 10.0 mi West 9.2 mph - N/A   Overcast
12:35 AM 38.1 °F 31.7 °F 31.8 °F 78% 29.88 in 10.0 mi West 9.2 mph - N/A   Overcast
12:55 AM 37.8 °F 32.5 °F 31.6 °F 79% 29.88 in 10.0 mi West 6.9 mph - N/A   Overcast
1:15 AM 37.6 °F 32.3 °F 31.5 °F 79% 29.88 in 10.0 mi West 6.9 mph - N/A   Overcast
1:35 AM 37.4 °F 32.8 °F 30.9 °F 77% 29.89 in 10.0 mi WSW 5.8 mph - N/A   Overcast
1:55 AM 37.4 °F 29.8 °F 30.9 °F 77% 29.89 in 10.0 mi West 11.5 mph 16.1 mph N/A   Overcast
2:15 AM 36.7 °F 32.0 °F 31.6 °F 82% 29.88 in 10.0 mi WSW 5.8 mph - N/A   Overcast
2:35 AM 36.5 °F 31.0 °F 31.5 °F 82% 29.88 in 10.0 mi West 6.9 mph - N/A   Overcast
2:55 AM 36.1 °F 32.3 °F 31.8 °F 84% 29.88 in 10.0 mi West 4.6 mph - N/A   Overcast
3:15 AM 36.0 °F 32.1 °F 31.5 °F 84% 29.87 in 10.0 mi WSW 4.6 mph - N/A   Overcast
3:35 AM 35.8 °F 29.4 °F 31.5 °F 84% 29.87 in 10.0 mi WSW 8.1 mph - N/A   Overcast
3:55 AM 35.6 °F 29.2 °F 31.6 °F 85% 29.87 in 10.0 mi WSW 8.1 mph - N/A   Overcast
4:15 AM 35.6 °F 30.7 °F 32.0 °F 87% 29.87 in 4.0 mi West 5.8 mph - N/A   Overcast
4:35 AM 35.4 °F 29.0 °F 32.4 °F 89% 29.87 in 7.0 mi WSW 8.1 mph - N/A   Light Drizzle
4:55 AM 35.6 °F 29.9 °F 32.0 °F 87% 29.87 in 10.0 mi WSW 6.9 mph - N/A   Overcast
5:15 AM 35.8 °F 27.8 °F 31.3 °F 84% 29.87 in 10.0 mi West 11.5 mph 16.1 mph N/A   Overcast
5:35 AM 35.6 °F 27.5 °F 30.4 °F 81% 29.88 in 10.0 mi West 11.5 mph 18.4 mph N/A   Overcast
5:55 AM 35.2 °F 27.6 °F 30.0 °F 81% 29.88 in 10.0 mi West 10.4 mph 17.3 mph N/A   Overcast
6:15 AM 35.1 °F 27.9 °F 29.8 °F 81% 29.88 in 10.0 mi WSW 9.2 mph - N/A   Overcast
6:35 AM 35.1 °F 28.6 °F 29.8 °F 81% 29.88 in 10.0 mi West 8.1 mph - N/A   Overcast
6:55 AM 35.1 °F 30.1 °F 29.8 °F 81% 29.89 in 10.0 mi West 5.8 mph - N/A   Overcast
7:15 AM 35.2 °F 28.1 °F 29.5 °F 80% 29.89 in 10.0 mi West 9.2 mph - N/A   Overcast
7:35 AM 35.6 °F 26.6 °F 29.1 °F 77% 29.90 in 10.0 mi West 13.8 mph 20.7 mph N/A   Overcast
7:55 AM 35.6 °F 27.5 °F 29.3 °F 78% 29.90 in 10.0 mi West 11.5 mph 17.3 mph N/A   Overcast
8:15 AM 35.8 °F 26.9 °F 29.1 °F 77% 29.91 in 10.0 mi West 13.8 mph 20.7 mph N/A   Overcast
8:35 AM 35.8 °F 26.9 °F 28.6 °F 75% 29.91 in 10.0 mi West 13.8 mph 25.3 mph N/A   Overcast
8:55 AM 35.6 °F 26.6 °F 28.4 °F 75% 29.92 in 10.0 mi West 13.8 mph 21.9 mph N/A   Overcast
9:15 AM 36.7 °F 28.0 °F 28.2 °F 71% 29.92 in 10.0 mi West 13.8 mph 21.9 mph N/A   Overcast
9:35 AM 36.9 °F 28.2 °F 28.6 °F 72% 29.92 in 10.0 mi West 13.8 mph 24.2 mph N/A   Overcast
9:55 AM 36.7 °F 28.4 °F 28.2 °F 71% 29.93 in 10.0 mi West 12.7 mph 24.2 mph N/A   Overcast
10:15 AM 36.9 °F 29.6 °F 27.3 °F 68% 29.93 in 10.0 mi West 10.4 mph 23.0 mph N/A   Overcast
10:35 AM 36.9 °F 29.1 °F 27.0 °F 67% 29.94 in 10.0 mi West 11.5 mph 20.7 mph N/A   Overcast
10:55 AM 39.2 °F 30.5 °F 27.1 °F 62% 29.94 in 10.0 mi West 16.1 mph 23.0 mph N/A   Mostly Cloudy
11:15 AM 38.3 °F 30.5 °F 28.0 °F 67% 29.95 in 10.0 mi West 12.7 mph 17.3 mph N/A   Mostly Cloudy
11:35 AM 38.7 °F 30.5 °F 27.1 °F 63% 29.96 in 10.0 mi West 13.8 mph 18.4 mph N/A   Overcast
11:55 AM 38.3 °F 30.9 °F 27.3 °F 65% 29.96 in 10.0 mi West 11.5 mph 20.7 mph N/A   Overcast
12:15 PM 39.0 °F 32.3 °F 28.9 °F 67% 29.96 in 10.0 mi West 10.4 mph - N/A   Overcast
12:35 PM 39.4 °F 31.1 °F 28.2 °F 64% 29.96 in 10.0 mi West 15.0 mph 21.9 mph N/A   Overcast
12:55 PM 41.5 °F 33.5 °F 27.7 °F 58% 29.96 in 10.0 mi West 16.1 mph 20.7 mph N/A   Mostly Cloudy
1:15 PM 40.8 °F 32.9 °F 27.5 °F 59% 29.96 in 10.0 mi West 15.0 mph 23.0 mph N/A   Overcast
1:35 PM 41.4 °F 34.7 °F 28.0 °F 59% 29.96 in 10.0 mi West 11.5 mph 20.7 mph N/A   Mostly Cloudy
1:55 PM 42.8 °F 37.0 °F 27.0 °F 54% 29.96 in 10.0 mi West 10.4 mph 24.2 mph N/A   Mostly Cloudy
2:15 PM 41.9 °F 35.0 °F 26.8 °F 55% 29.96 in 10.0 mi West 12.7 mph 19.6 mph N/A   Scattered Clouds
2:35 PM 42.4 °F 36.5 °F 27.9 °F 56% 29.96 in 10.0 mi West 10.4 mph 18.4 mph N/A   Mostly Cloudy
2:55 PM 44.4 °F 38.2 °F 28.4 °F 53% 29.95 in 10.0 mi West 12.7 mph 18.4 mph N/A   Mostly Cloudy
3:15 PM 43.9 °F 37.9 °F 28.0 °F 54% 29.95 in 10.0 mi West 11.5 mph 19.6 mph N/A   Mostly Cloudy
3:35 PM 46.0 °F 40.2 °F 28.8 °F 51% 29.95 in 10.0 mi West 12.7 mph 18.4 mph N/A   Scattered Clouds
3:55 PM 45.3 °F 39.7 °F 28.6 °F 52% 29.95 in 10.0 mi West 11.5 mph 23.0 mph N/A   Mostly Cloudy
4:15 PM 45.3 °F 39.3 °F 28.2 °F 51% 29.95 in 10.0 mi WNW 12.7 mph 18.4 mph N/A   Scattered Clouds
4:35 PM 45.7 °F 39.8 °F 29.1 °F 52% 29.95 in 10.0 mi West 12.7 mph 17.3 mph N/A   Mostly Cloudy
4:55 PM 45.9 °F 39.7 °F 28.9 °F 52% 29.95 in 10.0 mi West 13.8 mph 17.3 mph N/A   Mostly Cloudy
5:15 PM 45.3 °F 40.6 °F 29.7 °F 54% 29.96 in 10.0 mi WSW 9.2 mph 16.1 mph N/A   Mostly Cloudy
5:35 PM 45.5 °F 40.8 °F 29.5 °F 54% 29.95 in 10.0 mi West 9.2 mph - N/A   Mostly Cloudy
5:55 PM 45.1 °F 40.3 °F 29.8 °F 55% 29.95 in 10.0 mi West 9.2 mph - N/A   Scattered Clouds
6:15 PM 45.3 °F 41.1 °F 30.0 °F 55% 29.95 in 10.0 mi West 8.1 mph - N/A   Scattered Clouds
6:35 PM 44.8 °F 41.0 °F 30.0 °F 56% 29.95 in 10.0 mi WNW 6.9 mph - N/A   Scattered Clouds
6:55 PM 44.4 °F 41.2 °F 30.7 °F 59% 29.95 in 10.0 mi West 5.8 mph - N/A   Scattered Clouds
7:15 PM 43.7 °F - 30.7 °F 60% 29.95 in 10.0 mi Calm Calm - N/A   Scattered Clouds
7:35 PM 42.8 °F - 30.9 °F 63% 29.95 in 10.0 mi Calm Calm - N/A   Mostly Cloudy
7:55 PM 42.6 °F - 31.1 °F 64% 29.96 in 10.0 mi Calm Calm - N/A   Scattered Clouds
8:15 PM 40.8 °F - 31.3 °F 69% 29.96 in 10.0 mi Calm Calm - N/A   Scattered Clouds
8:35 PM 35.8 °F - 29.7 °F 78% 29.96 in 10.0 mi Calm Calm - N/A   Scattered Clouds
8:55 PM 35.6 °F - 31.1 °F 84% 29.96 in 10.0 mi Calm Calm - N/A   Overcast
9:15 PM 38.1 °F - 32.0 °F 79% 29.96 in 10.0 mi Calm Calm - N/A   Overcast
9:35 PM 38.5 °F - 32.0 °F 78% 29.96 in 10.0 mi Calm Calm - N/A   Overcast
9:55 PM 38.7 °F - 32.4 °F 78% 29.97 in 10.0 mi Calm Calm - N/A   Overcast
10:15 PM 39.0 °F - 34.2 °F 83% 29.97 in 10.0 mi Calm Calm - N/A   Overcast
10:35 PM 39.6 °F - 32.9 °F 77% 29.97 in 10.0 mi Calm Calm - N/A   Overcast
10:55 PM 39.4 °F - 34.2 °F 82% 29.97 in 10.0 mi Calm Calm - N/A   Overcast
11:15 PM 41.0 °F - 32.5 °F 72% 29.97 in 10.0 mi Calm Calm - N/A   Overcast
11:35 PM 41.0 °F - 33.6 °F 75% 29.98 in 10.0 mi Calm Calm - N/A   Overcast
11:55 PM 39.6 °F - 35.6 °F 86% 29.98 in 10.0 mi Calm Calm - N/A   Overcast